Theta_e
312 313 313 312 312 314 314 312 311 313 311 311 310 310 309 311 312 312 312 314 314 313 313 313 315 314 314 313 315 318 319 321 320 322 317 323 325 326 326 328 327 325 325 325
311 314 313 312 312 314 314 310 312 313 311 313 311 310 310 310 313 314 313 315 315 313 313 314 316 316 314 316 317 318 320 321 325 321 319 320 325 325 327 326 324 327 326 326
309 314 313 312 311 313 313 311 315 312 310 311 314 312 313 313 312 313 314 315 315 313 313 314 316 318 317 317 316 318 319 321 323 325 325 323 326 326 325 327 328 327 326 324
306 314 313 311 311 313 312 310 315 314 314 313 313 314 315 316 317 315 314 318 317 315 313 314 316 317 318 317 319 318 321 322 321 321 322 324 325 325 326 327 327 327 326 324
306 311 312 311 311 312 312 310 311 314 315 313 313 313 315 316 316 319 318 318 317 316 313 314 318 318 320 321 321 320 321 322 321 322 321 321 322 322 324 325 325 324 324 325
305 312 312 311 311 312 312 312 311 312 315 317 317 318 315 315 316 317 318 317 319 318 314 314 320 320 319 321 322 321 321 322 322 324 320 321 323 322 322 322 322 322 325 324
304 307 311 311 311 311 312 313 312 312 313 313 315 317 316 317 319 319 318 318 320 319 316 319 319 318 320 321 321 320 322 322 323 325 320 327 323 318 320 321 322 322 323 322
302 310 312 311 311 311 311 312 310 312 314 313 314 314 316 313 313 313 315 313 316 315 318 320 320 320 320 317 313 320 321 322 323 323 323 323 322 316 318 321 322 321 321 320
302 311 312 311 311 310 311 312 313 311 313 313 312 314 314 317 315 313 311 310 311 313 320 322 322 323 321 321 318 311 320 321 323 322 323 325 319 316 315 319 322 321 321 320
302 305 308 311 311 310 311 312 312 311 312 311 310 313 316 314 314 313 312 312 317 315 321 324 324 324 319 323 322 316 320 321 324 325 325 325 316 315 315 319 322 315 317 318
302 307 311 311 310 310 311 311 312 312 313 313 310 310 309 310 315 318 311 316 315 318 321 322 321 322 319 323 321 318 319 322 323 324 326 326 315 314 318 318 315 315 316 316
302 305 309 310 310 310 311 311 312 311 311 314 311 310 309 309 312 314 311 313 315 318 319 319 318 317 316 320 322 316 323 321 322 323 323 314 313 314 313 316 316 315 314 313
302 305 310 310 309 310 311 312 313 312 312 313 312 312 311 310 310 312 314 314 314 315 315 315 317 319 317 321 321 319 315 312 318 315 314 314 312 311 313 315 314 313 312 311
303 305 310 310 309 310 310 311 312 312 313 316 315 312 312 312 310 311 312 318 318 316 314 316 318 320 312 318 317 317 314 313 316 315 312 312 311 312 312 311 311 310 310 310
303 307 310 310 309 309 311 312 312 313 314 317 313 312 312 312 312 310 312 312 313 313 315 318 320 313 314 313 314 317 312 315 316 318 315 316 314 312 310 310 309 309 309 308
303 308 310 310 309 309 311 311 312 313 313 313 314 311 311 311 311 312 311 312 313 315 318 317 313 311 315 321 321 317 314 313 313 315 314 313 312 310 310 310 309 308 308 307
304 308 309 309 308 309 312 313 314 314 314 312 312 312 311 311 312 312 313 313 313 316 314 316 316 314 313 317 321 317 313 312 311 311 311 311 310 310 309 308 308 307 306 304
305 309 309 308 308 310 311 312 312 313 313 312 309 310 311 311 314 315 312 315 315 313 314 312 316 312 313 318 317 313 312 311 310 309 309 311 310 308 307 308 307 305 302 301
308 308 308 308 309 311 311 312 312 312 311 308 308 311 313 310 310 311 311 313 318 312 316 316 314 318 319 319 316 310 311 310 309 307 308 308 307 307 307 306 304 302 300 300
308 307 309 309 310 311 311 309 309 310 310 308 310 310 311 309 309 308 310 308 312 313 311 309 312 316 316 314 313 312 310 309 309 306 304 305 306 306 305 304 301 300 300 299
307 308 307 309 310 310 309 308 310 309 309 307 307 310 310 307 310 309 306 309 309 315 312 313 315 314 312 306 309 309 308 309 308 309 310 308 308 305 303 300 300 299 299 298
308 307 308 308 308 305 308 309 305 307 310 307 307 308 309 305 306 306 304 308 307 312 307 311 310 310 302 304 306 307 306 307 307 308 307 306 305 304 300 300 299 298 298 297
308 309 308 306 304 308 309 307 306 306 306 305 304 306 305 304 304 304 306 308 310 304 307 309 309 302 300 303 304 304 304 305 306 306 305 305 301 299 299 298 298 297 297 297
305 305 305 307 306 307 308 308 308 305 304 303 304 304 306 304 306 306 308 304 303 306 307 307 305 301 300 302 302 303 304 305 305 304 300 299 299 298 298 298 298 297 297 297
300 303 308 305 300 296 296 298 300 302 304 304 304 304 303 304 304 304 303 303 305 306 307 306 301 299 300 302 301 302 303 303 300 299 299 298 298 298 298 298 297 297 297 296
299 299 300 297 300 298 296 299 301 304 304 305 305 304 305 302 304 303 305 305 307 308 306 300 298 298 299 302 301 300 299 299 299 299 298 298 298 297 297 296 296 296 296 296
299 298 297 297 299 300 299 300 302 304 303 307 306 307 307 302 303 305 304 305 305 301 298 298 298 298 299 301 300 299 299 299 298 298 297 297 296 295 295 296 296 295 295 294
Wind_Speed
21 22 23 17 15 18 17 14 3 12 25 6 4 6 5 5 8 20 12 6 16 14 16 17 13 12 11 20 15 7 7 4 3 4 4 8 10 9 10 7 4 3 5 6
12 23 23 17 17 22 21 8 6 16 33 5 7 4 7 9 3 9 10 11 16 13 16 11 11 9 11 17 18 9 10 6 4 4 7 5 11 9 13 11 1 10 7 6
12 24 24 17 19 22 22 7 4 8 18 11 4 8 8 8 16 17 16 10 15 12 15 17 12 8 8 14 20 16 7 7 9 4 8 12 10 18 18 16 10 9 11 8
18 20 25 17 20 23 21 11 5 7 5 8 13 6 4 8 6 13 20 7 17 17 15 19 11 13 10 13 20 16 4 5 3 2 5 16 15 19 21 21 18 13 12 15
19 9 25 17 20 24 24 9 5 6 2 13 15 16 7 11 11 7 15 9 21 18 13 14 13 13 12 8 13 16 9 2 3 4 2 6 11 17 21 21 21 20 18 16
25 16 21 16 21 28 17 17 9 3 3 8 8 5 10 12 14 10 8 19 10 17 16 20 7 18 15 2 15 16 9 5 4 3 6 5 8 18 19 19 21 19 20 17
20 12 25 19 22 30 25 12 8 5 8 10 10 3 5 12 12 7 8 16 15 11 6 13 12 11 3 6 10 18 13 11 3 1 6 5 1 3 16 20 19 19 19 15
22 6 25 20 21 27 29 23 8 4 7 9 4 7 6 1 4 2 1 4 6 10 15 9 5 0 2 4 7 10 7 5 3 3 7 8 8 4 5 12 17 20 17 15
21 6 18 19 19 24 27 26 22 6 4 2 1 4 5 2 2 2 2 5 10 8 3 4 4 4 4 4 2 5 5 5 2 1 3 4 6 3 0 5 7 5 16 13
19 18 19 23 18 23 27 20 23 9 7 8 3 4 3 4 4 3 3 5 3 4 2 3 3 2 4 7 8 6 4 3 4 4 3 7 3 4 4 5 2 3 6 15
21 5 17 18 18 24 26 24 20 17 7 8 4 4 3 3 4 3 6 5 1 1 2 3 2 3 5 6 11 9 6 6 3 4 4 7 5 5 4 3 6 9 13 17
22 9 16 20 19 25 25 20 19 20 8 4 7 8 9 9 9 7 14 1 5 5 3 2 2 2 2 6 6 6 7 7 5 9 5 3 2 3 2 5 12 15 18 17
19 9 22 16 20 26 26 21 16 19 9 8 5 5 5 6 10 13 5 3 8 6 3 3 1 1 3 4 3 6 4 3 3 3 4 2 4 2 4 13 14 16 18 19
19 8 22 17 20 24 25 21 18 21 5 3 3 5 5 3 6 15 8 11 8 7 6 3 2 2 2 1 1 3 1 9 8 1 2 2 5 6 13 16 17 18 15 13
17 11 22 17 20 23 22 18 21 23 4 1 2 3 1 2 4 11 7 11 14 8 4 3 3 3 3 1 1 3 7 6 6 3 13 4 10 17 17 19 19 18 17 16
16 17 22 20 22 24 20 6 18 20 9 1 2 1 1 5 7 8 11 11 8 4 3 2 3 3 3 4 3 1 15 8 4 2 14 4 17 19 17 19 18 15 13 11
17 22 21 22 24 24 14 4 3 19 21 4 2 3 2 6 5 4 3 4 3 2 3 2 2 3 2 1 3 6 14 10 8 13 18 15 19 14 18 19 18 16 14 13
19 24 22 22 22 22 18 14 4 21 10 5 2 1 3 6 3 3 2 2 2 4 1 1 2 3 3 4 7 7 14 13 12 13 8 12 18 22 19 20 19 17 15 11
26 26 25 21 16 10 12 11 14 16 4 5 3 4 3 7 2 3 2 1 1 1 2 2 2 4 5 6 8 16 21 17 19 13 13 19 24 25 23 21 18 16 13 9
32 33 14 7 13 12 13 9 8 5 4 3 1 3 2 4 3 2 1 3 1 1 1 3 3 5 12 5 7 14 20 16 23 24 18 23 26 26 23 19 15 12 10 7
34 11 6 20 26 10 3 3 4 5 3 6 5 5 4 3 2 3 2 2 1 2 2 2 3 4 3 3 8 12 21 21 21 13 15 22 28 26 22 18 14 10 7 5
18 12 25 23 6 3 4 3 0 3 4 5 6 6 6 5 4 3 2 2 0 2 1 2 4 1 1 0 7 14 18 21 20 15 21 20 21 20 19 16 12 9 7 5
32 13 8 8 3 5 9 9 5 4 6 10 8 4 6 5 4 3 2 3 2 2 3 4 4 3 2 5 11 16 20 21 22 22 22 21 22 19 15 14 11 8 6 3
3 4 8 7 6 7 5 5 5 5 8 19 15 6 3 4 3 3 4 2 3 3 4 5 2 7 10 10 14 22 24 24 26 25 25 23 20 18 15 12 9 6 4 3
4 4 4 4 4 4 3 7 9 7 23 23 10 7 5 2 4 2 4 4 5 5 4 1 4 12 16 17 18 25 28 28 29 27 24 20 17 14 12 10 7 5 4 3
2 2 3 4 4 3 4 5 8 21 25 17 5 4 3 2 5 5 6 7 6 2 1 4 10 13 15 20 25 29 30 30 28 23 19 16 13 11 10 8 6 4 4 5
2 2 3 3 4 6 7 10 12 26 19 2 3 4 3 5 3 5 4 4 1 3 6 9 12 18 20 24 28 29 27 24 20 17 15 13 11 9 8 6 5 5 5 5
Wind_Direction
228 222 225 225 234 215 209 201 203 195 171 177 205 226 201 222 205 201 212 249 254 219 205 205 203 216 218 190 173 203 228 178 106 84 322 175 182 192 201 205 178 278 331 101
275 220 220 218 222 208 194 179 188 189 176 200 212 222 223 246 257 192 189 223 237 221 209 208 199 228 199 177 178 196 206 179 98 66 14 345 190 208 211 239 325 225 226 116
301 212 212 212 221 210 205 186 193 159 200 237 222 213 219 223 229 229 209 226 228 206 204 214 194 221 174 181 202 209 264 270 239 140 155 160 191 195 209 221 220 229 218 137
325 228 204 206 217 208 205 196 227 180 191 228 229 226 250 214 249 204 186 222 221 197 196 202 227 201 184 196 210 212 275 286 247 7 70 167 180 189 204 221 227 227 227 231
332 267 194 200 210 206 213 176 218 172 276 221 218 233 230 232 238 224 180 228 203 205 204 194 206 190 188 182 197 203 218 261 299 222 215 217 212 210 217 221 227 234 247 248
318 194 196 199 206 205 204 206 217 256 215 215 215 216 221 242 214 232 203 202 219 205 213 192 279 186 198 200 185 187 205 244 200 176 172 194 249 226 220 226 230 234 235 240
321 303 217 203 210 211 210 201 192 210 252 249 232 210 259 233 231 208 211 213 218 203 121 130 44 68 120 227 183 190 198 227 297 263 170 216 2 29 228 225 237 232 243 254
314 281 191 203 211 213 217 219 196 215 257 271 246 246 247 181 114 100 222 142 156 155 161 171 91 0 80 49 38 214 194 231 238 231 222 289 283 187 187 197 237 233 233 230
298 152 197 206 212 214 218 226 226 211 287 287 213 243 197 204 106 131 77 107 135 133 193 140 166 187 116 162 90 11 95 205 221 200 252 244 48 97 198 183 255 228 210 207
296 321 219 206 210 212 213 224 225 206 245 266 229 238 208 170 119 79 132 144 120 196 164 137 159 162 173 161 163 161 143 163 167 223 267 289 74 125 147 197 43 65 169 162
282 319 194 208 213 205 206 225 222 198 235 271 260 258 236 163 191 142 155 128 305 71 94 151 150 180 188 165 164 169 151 141 173 206 197 260 139 118 232 79 104 131 135 148
285 300 200 208 208 202 206 220 225 213 232 291 296 254 242 223 193 148 168 278 167 157 120 170 154 150 210 159 181 188 202 202 181 202 207 106 154 37 22 159 141 136 134 135
282 279 194 206 204 201 205 216 227 199 227 261 251 229 223 204 203 192 142 202 201 157 149 123 66 238 172 184 189 147 207 213 208 178 157 149 193 148 153 149 140 138 136 134
275 265 192 204 200 200 204 218 225 187 190 255 158 211 202 222 205 196 175 182 205 173 120 104 159 228 228 274 63 238 64 160 168 210 169 144 201 176 153 139 136 132 128 128
268 217 189 201 195 198 202 223 228 203 205 325 165 180 221 185 179 191 199 182 171 171 149 190 178 119 159 176 235 205 190 172 185 225 176 190 169 163 155 143 143 146 145 137
246 198 188 196 191 194 198 237 243 222 197 207 172 218 105 120 112 128 152 163 166 158 175 150 152 181 231 186 204 152 183 181 50 119 150 99 146 152 152 145 145 144 146 150
235 188 186 187 189 190 187 200 236 197 198 198 137 172 180 151 128 109 94 122 129 96 123 149 154 165 187 247 226 163 183 164 144 139 124 122 152 159 154 155 153 155 152 155
216 175 180 179 186 191 209 227 264 180 168 169 128 111 156 166 140 117 82 105 123 36 89 142 188 145 219 241 221 175 166 155 151 156 168 165 155 150 152 162 160 156 156 160
184 170 167 168 180 191 191 221 188 169 169 148 161 154 160 156 91 92 88 42 155 349 222 179 238 183 218 214 201 177 177 171 161 158 147 154 158 160 161 162 159 161 160 164
172 157 149 172 162 155 169 140 166 195 182 160 125 116 122 138 126 82 100 28 87 183 241 325 235 254 246 263 226 207 183 177 174 145 144 160 161 161 159 160 159 165 164 164
161 159 126 143 139 131 125 165 212 157 188 174 137 156 134 137 129 122 47 123 22 208 132 251 247 250 207 274 212 184 183 187 178 190 180 172 168 161 158 159 159 159 161 174
176 135 127 127 132 127 143 184 6 211 191 142 153 142 125 125 117 95 30 97 130 234 117 254 256 213 15 177 171 161 168 162 163 161 151 154 158 158 157 154 154 162 168 173
135 128 148 158 153 183 187 186 196 189 162 168 160 139 132 123 107 84 131 142 176 118 202 237 243 104 134 131 141 141 151 154 148 144 149 152 149 146 149 151 155 157 162 182
118 134 146 193 179 210 184 179 158 157 156 144 134 112 108 110 94 142 127 108 162 211 234 235 158 162 149 140 145 147 145 146 143 144 143 142 144 144 146 149 152 161 173 192
146 172 183 174 112 77 79 118 122 128 148 141 117 90 99 109 111 112 123 159 227 226 234 143 144 162 155 146 141 145 145 144 140 139 141 142 145 148 151 159 169 182 199 223
83 92 117 118 123 119 140 144 136 143 150 147 111 124 120 134 141 161 199 178 220 212 152 123 146 150 151 147 150 146 143 140 139 141 143 147 154 161 168 171 179 201 229 246
22 71 86 113 61 148 151 154 160 156 159 135 145 133 122 118 174 198 186 214 30 104 113 126 152 155 149 152 152 145 143 141 142 147 154 160 165 167 172 183 198 219 231 243